Time,TemperatureF,DewpointF,PressureIn,WindDirection,WindDirectionDegrees,WindSpeedMPH,WindSpeedGustMPH,Humidity,HourlyPrecipIn,Conditions,Clouds,dailyrainin,SoftwareType,DateUTC
2013-03-11 00:00:00,41.1,33.1,30.28,SE,135,2.0,2.0,73,0.00,,,0.00,Wunderground v.1.15,2013-03-11 04:00:00,
2013-03-11 00:01:00,41.1,33.1,30.27,SE,138,2.0,3.0,73,0.00,,,0.00,Wunderground v.1.15,2013-03-11 04:01:00,
2013-03-11 00:07:00,40.9,32.9,30.28,SSW,213,1.0,3.0,73,0.00,,,0.00,Wunderground v.1.15,2013-03-11 04:07:00,
2013-03-11 00:12:00,40.8,33.2,30.28,SW,214,1.0,3.0,74,0.00,,,0.00,Wunderground v.1.15,2013-03-11 04:12:00,
2013-03-11 00:18:00,40.7,33.1,30.29,SW,214,1.0,3.0,74,0.00,,,0.00,Wunderground v.1.15,2013-03-11 04:18:00,
2013-03-11 00:24:00,40.5,32.9,30.29,SSW,204,1.0,3.0,74,0.00,,,0.00,Wunderground v.1.15,2013-03-11 04:24:00,
2013-03-11 00:30:00,40.3,33.0,30.29,SSW,211,1.0,7.0,75,0.00,,,0.00,Wunderground v.1.15,2013-03-11 04:30:00,
2013-03-11 00:35:00,40.3,33.3,30.29,South,183,3.0,7.0,76,0.00,,,0.00,Wunderground v.1.15,2013-03-11 04:35:00,
2013-03-11 00:42:00,40.2,33.2,30.28,South,172,4.0,7.0,76,0.00,,,0.00,Wunderground v.1.15,2013-03-11 04:42:00,
2013-03-11 00:47:00,40.1,33.5,30.28,SSE,150,4.0,7.0,77,0.00,,,0.00,Wunderground v.1.15,2013-03-11 04:47:00,
2013-03-11 00:53:00,40.0,33.4,30.27,SSE,155,4.0,5.0,77,0.00,,,0.00,Wunderground v.1.15,2013-03-11 04:53:00,
2013-03-11 00:58:00,39.8,32.8,30.27,SSE,155,2.0,5.0,76,0.00,,,0.00,Wunderground v.1.15,2013-03-11 04:58:00,
2013-03-11 01:03:00,39.5,32.9,30.26,SE,146,0.0,10.0,77,0.00,,,0.00,Wunderground v.1.15,2013-03-11 05:03:00,
2013-03-11 01:08:00,39.1,32.8,30.25,SE,130,1.0,10.0,78,0.00,,,0.00,Wunderground v.1.15,2013-03-11 05:08:00,
2013-03-11 01:14:00,38.9,32.6,30.25,SE,130,1.0,10.0,78,0.00,,,0.00,Wunderground v.1.15,2013-03-11 05:14:00,
2013-03-11 01:20:00,38.8,32.8,30.25,SE,130,0.0,10.0,79,0.00,,,0.00,Wunderground v.1.15,2013-03-11 05:20:00,
2013-03-11 01:26:00,38.5,32.6,30.25,SSE,162,0.0,10.0,79,0.00,,,0.00,Wunderground v.1.15,2013-03-11 05:26:00,
2013-03-11 01:32:00,38.7,32.7,30.25,SW,227,2.0,10.0,79,0.00,,,0.00,Wunderground v.1.15,2013-03-11 05:32:00,
2013-03-11 01:37:00,38.9,32.9,30.25,SW,219,3.0,10.0,79,0.00,,,0.00,Wunderground v.1.15,2013-03-11 05:37:00,
2013-03-11 01:42:00,38.9,32.9,30.25,SW,219,1.0,10.0,79,0.00,,,0.00,Wunderground v.1.15,2013-03-11 05:42:00,
2013-03-11 01:48:00,38.7,32.7,30.25,SSW,196,2.0,10.0,79,0.00,,,0.00,Wunderground v.1.15,2013-03-11 05:48:00,
2013-03-11 01:54:00,38.6,32.6,30.25,South,185,1.0,10.0,79,0.00,,,0.00,Wunderground v.1.15,2013-03-11 05:54:00,
2013-03-11 01:59:00,38.5,32.9,30.26,South,182,1.0,10.0,80,0.00,,,0.00,Wunderground v.1.15,2013-03-11 05:59:00,
2013-03-11 02:05:00,38.3,32.7,30.26,East,82,1.0,10.0,80,0.00,,,0.00,Wunderground v.1.15,2013-03-11 06:05:00,
2013-03-11 02:11:00,38.0,32.4,30.26,East,83,0.0,10.0,80,0.00,,,0.00,Wunderground v.1.15,2013-03-11 06:11:00,
2013-03-11 02:17:00,37.8,32.5,30.26,East,82,0.0,10.0,81,0.00,,,0.00,Wunderground v.1.15,2013-03-11 06:17:00,
2013-03-11 02:23:00,37.6,32.3,30.27,ENE,78,0.0,10.0,81,0.00,,,0.00,Wunderground v.1.15,2013-03-11 06:23:00,
2013-03-11 02:29:00,37.5,32.2,30.26,South,186,1.0,10.0,81,0.00,,,0.00,Wunderground v.1.15,2013-03-11 06:29:00,
2013-03-11 02:35:00,37.4,32.4,30.26,South,190,1.0,10.0,82,0.00,,,0.00,Wunderground v.1.15,2013-03-11 06:35:00,
2013-03-11 02:40:00,37.2,32.2,30.26,South,188,1.0,10.0,82,0.00,,,0.00,Wunderground v.1.15,2013-03-11 06:40:00,
2013-03-11 02:47:00,37.0,32.0,30.25,SE,144,1.0,10.0,82,0.00,,,0.00,Wunderground v.1.15,2013-03-11 06:47:00,
2013-03-11 02:53:00,36.8,32.1,30.25,SSE,155,3.0,10.0,83,0.00,,,0.00,Wunderground v.1.15,2013-03-11 06:53:00,
2013-03-11 02:59:00,36.5,31.8,30.25,SSE,150,4.0,10.0,83,0.00,,,0.00,Wunderground v.1.15,2013-03-11 06:59:00,
2013-03-11 03:04:00,36.4,32.0,30.24,SSW,195,4.0,10.0,84,0.00,,,0.00,Wunderground v.1.15,2013-03-11 07:04:00,
2013-03-11 03:10:00,36.3,31.9,30.24,SE,144,5.0,5.0,84,0.00,,,0.00,Wunderground v.1.15,2013-03-11 07:10:00,
2013-03-11 03:16:00,36.3,31.9,30.24,ESE,121,3.0,10.0,84,0.00,,,0.00,Wunderground v.1.15,2013-03-11 07:16:00,
2013-03-11 03:21:00,36.3,31.9,30.23,SSE,161,3.0,10.0,84,0.00,,,0.00,Wunderground v.1.15,2013-03-11 07:21:00,
2013-03-11 03:27:00,36.3,31.9,30.23,SSW,213,4.0,10.0,84,0.00,,,0.00,Wunderground v.1.15,2013-03-11 07:27:00,
2013-03-11 03:33:00,36.2,31.8,30.23,SSW,210,4.0,10.0,84,0.00,,,0.00,Wunderground v.1.15,2013-03-11 07:33:00,
2013-03-11 03:38:00,36.2,31.8,30.23,SW,224,5.0,10.0,84,0.00,,,0.00,Wunderground v.1.15,2013-03-11 07:38:00,
2013-03-11 03:44:00,36.1,31.7,30.22,SSW,195,5.0,10.0,84,0.00,,,0.00,Wunderground v.1.15,2013-03-11 07:44:00,
2013-03-11 03:50:00,36.0,31.6,30.22,SSW,210,5.0,10.0,84,0.00,,,0.00,Wunderground v.1.15,2013-03-11 07:50:00,
2013-03-11 03:56:00,35.9,31.5,30.22,South,171,5.0,10.0,84,0.00,,,0.00,Wunderground v.1.15,2013-03-11 07:56:00,
2013-03-11 04:02:00,35.8,31.4,30.21,SW,219,4.0,10.0,84,0.00,,,0.00,Wunderground v.1.15,2013-03-11 08:02:00,
2013-03-11 04:07:00,35.8,31.7,30.22,SSE,168,4.0,10.0,85,0.00,,,0.00,Wunderground v.1.15,2013-03-11 08:07:00,
2013-03-11 04:13:00,35.7,31.6,30.22,South,175,6.0,10.0,85,0.00,,,0.00,Wunderground v.1.15,2013-03-11 08:13:00,
2013-03-11 04:18:00,35.7,31.3,30.21,East,90,4.0,10.0,84,0.00,,,0.00,Wunderground v.1.15,2013-03-11 08:18:00,
2013-03-11 04:23:00,35.5,31.4,30.21,ENE,75,2.0,10.0,85,0.00,,,0.00,Wunderground v.1.15,2013-03-11 08:23:00,
2013-03-11 04:29:00,35.5,31.4,30.22,ENE,75,0.0,10.0,85,0.00,,,0.00,Wunderground v.1.15,2013-03-11 08:29:00,
2013-03-11 04:35:00,35.4,31.3,30.22,ENE,75,0.0,10.0,85,0.00,,,0.00,Wunderground v.1.15,2013-03-11 08:35:00,
2013-03-11 04:41:00,35.4,31.3,30.22,ENE,75,0.0,10.0,85,0.00,,,0.00,Wunderground v.1.15,2013-03-11 08:41:00,
2013-03-11 04:46:00,35.3,31.2,30.22,ENE,75,0.0,10.0,85,0.00,,,0.00,Wunderground v.1.15,2013-03-11 08:46:00,
2013-03-11 04:52:00,35.3,31.2,30.22,ENE,75,0.0,10.0,85,0.00,,,0.00,Wunderground v.1.15,2013-03-11 08:52:00,
2013-03-11 04:57:00,35.3,31.2,30.21,ENE,75,0.0,10.0,85,0.00,,,0.00,Wunderground v.1.15,2013-03-11 08:57:00,
2013-03-11 05:03:00,35.3,31.2,30.22,ENE,75,0.0,10.0,85,0.00,,,0.00,Wunderground v.1.15,2013-03-11 09:03:00,
2013-03-11 05:09:00,35.3,31.2,30.21,ENE,75,0.0,10.0,85,0.00,,,0.00,Wunderground v.1.15,2013-03-11 09:09:00,
2013-03-11 05:15:00,35.3,31.2,30.21,ENE,75,0.0,10.0,85,0.00,,,0.00,Wunderground v.1.15,2013-03-11 09:15:00,
2013-03-11 05:20:00,35.3,31.2,30.22,ENE,75,0.0,10.0,85,0.00,,,0.00,Wunderground v.1.15,2013-03-11 09:20:00,
2013-03-11 05:25:00,35.3,31.2,30.22,ENE,75,0.0,10.0,85,0.00,,,0.00,Wunderground v.1.15,2013-03-11 09:25:00,
2013-03-11 05:32:00,35.2,31.1,30.22,ENE,75,0.0,10.0,85,0.00,,,0.00,Wunderground v.1.15,2013-03-11 09:32:00,
2013-03-11 05:38:00,35.1,31.0,30.22,NNE,17,0.0,10.0,85,0.00,,,0.00,Wunderground v.1.15,2013-03-11 09:38:00,
2013-03-11 05:44:00,34.9,31.1,30.21,NNW,327,0.0,10.0,86,0.00,,,0.00,Wunderground v.1.15,2013-03-11 09:44:00,
2013-03-11 05:50:00,34.9,31.1,30.21,South,190,2.0,10.0,86,0.00,,,0.00,Wunderground v.1.15,2013-03-11 09:50:00,
2013-03-11 05:56:00,34.8,31.0,30.21,SSW,195,3.0,10.0,86,0.00,,,0.00,Wunderground v.1.15,2013-03-11 09:56:00,
2013-03-11 06:02:00,34.8,31.0,30.21,SW,232,3.0,10.0,86,0.00,,,0.00,Wunderground v.1.15,2013-03-11 10:02:00,
2013-03-11 06:07:00,34.7,30.9,30.21,SW,219,2.0,10.0,86,0.00,,,0.00,Wunderground v.1.15,2013-03-11 10:07:00,
2013-03-11 06:12:00,34.7,30.9,30.22,ESE,117,1.0,10.0,86,0.00,,,0.00,Wunderground v.1.15,2013-03-11 10:12:00,
2013-03-11 06:18:00,34.7,30.9,30.22,ESE,117,0.0,10.0,86,0.00,,,0.00,Wunderground v.1.15,2013-03-11 10:18:00,
2013-03-11 06:23:00,34.7,30.9,30.22,ESE,117,0.0,10.0,86,0.00,,,0.00,Wunderground v.1.15,2013-03-11 10:23:00,
2013-03-11 06:29:00,34.8,31.0,30.21,SE,144,0.0,10.0,86,0.00,,,0.00,Wunderground v.1.15,2013-03-11 10:29:00,
2013-03-11 06:34:00,34.8,31.0,30.21,SE,144,0.0,10.0,86,0.00,,,0.00,Wunderground v.1.15,2013-03-11 10:34:00,
2013-03-11 06:39:00,34.8,31.0,30.21,SE,144,0.0,10.0,86,0.00,,,0.00,Wunderground v.1.15,2013-03-11 10:39:00,
2013-03-11 06:44:00,34.8,31.0,30.21,SE,144,0.0,10.0,86,0.00,,,0.00,Wunderground v.1.15,2013-03-11 10:44:00,
2013-03-11 06:50:00,34.7,30.9,30.21,SE,144,0.0,10.0,86,0.00,,,0.00,Wunderground v.1.15,2013-03-11 10:50:00,
2013-03-11 06:55:00,34.7,30.9,30.20,SE,144,0.0,10.0,86,0.00,,,0.00,Wunderground v.1.15,2013-03-11 10:55:00,
2013-03-11 07:01:00,34.3,30.5,30.21,SE,144,0.0,10.0,86,0.00,,,0.00,Wunderground v.1.15,2013-03-11 11:01:00,
2013-03-11 07:06:00,34.3,30.8,30.21,West,275,0.0,10.0,87,0.00,,,0.00,Wunderground v.1.15,2013-03-11 11:06:00,
2013-03-11 07:12:00,34.3,30.5,30.20,West,275,1.0,10.0,86,0.00,,,0.00,Wunderground v.1.15,2013-03-11 11:12:00,
2013-03-11 07:17:00,34.3,30.8,30.20,West,275,0.0,10.0,87,0.00,,,0.00,Wunderground v.1.15,2013-03-11 11:17:00,
2013-03-11 07:23:00,34.2,30.7,30.20,WSW,250,1.0,10.0,87,0.00,,,0.00,Wunderground v.1.15,2013-03-11 11:23:00,
2013-03-11 07:29:00,34.1,30.9,30.20,South,190,4.0,10.0,88,0.00,,,0.00,Wunderground v.1.15,2013-03-11 11:29:00,
2013-03-11 07:34:00,34.0,30.8,30.19,South,169,6.0,10.0,88,0.00,,,0.00,Wunderground v.1.15,2013-03-11 11:34:00,
2013-03-11 07:40:00,34.0,30.8,30.19,SSW,208,6.0,10.0,88,0.00,,,0.00,Wunderground v.1.15,2013-03-11 11:40:00,
2013-03-11 07:45:00,34.0,30.8,30.19,SW,235,6.0,14.0,88,0.00,,,0.00,Wunderground v.1.15,2013-03-11 11:45:00,
2013-03-11 07:52:00,34.0,31.1,30.19,SW,225,6.0,12.0,89,0.00,,,0.00,Wunderground v.1.15,2013-03-11 11:52:00,
2013-03-11 07:58:00,34.1,31.2,30.19,SSW,212,7.0,12.0,89,0.00,,,0.00,Wunderground v.1.15,2013-03-11 11:58:00,
2013-03-11 08:03:00,34.1,31.2,30.19,South,190,7.0,10.0,89,0.00,,,0.00,Wunderground v.1.15,2013-03-11 12:03:00,
2013-03-11 08:09:00,34.2,31.3,30.19,SW,232,6.0,10.0,89,0.00,,,0.00,Wunderground v.1.15,2013-03-11 12:09:00,
2013-03-11 08:14:00,34.3,31.4,30.18,SSW,209,7.0,11.0,89,0.00,,,0.00,Wunderground v.1.15,2013-03-11 12:14:00,
2013-03-11 08:20:00,34.4,31.5,30.19,SW,230,8.0,10.0,89,0.00,,,0.00,Wunderground v.1.15,2013-03-11 12:20:00,
2013-03-11 08:27:00,34.6,31.7,30.19,SW,214,11.0,18.0,89,0.00,,,0.00,Wunderground v.1.15,2013-03-11 12:27:00,
2013-03-11 08:32:00,34.7,31.8,30.19,SSW,205,11.0,16.0,89,0.00,,,0.00,Wunderground v.1.15,2013-03-11 12:32:00,
2013-03-11 08:37:00,34.8,31.6,30.19,SW,225,12.0,19.0,88,0.00,,,0.00,Wunderground v.1.15,2013-03-11 12:37:00,
2013-03-11 08:43:00,34.9,31.7,30.19,SW,230,11.0,13.0,88,0.00,,,0.00,Wunderground v.1.15,2013-03-11 12:43:00,
2013-03-11 08:49:00,35.0,31.8,30.20,South,171,8.0,13.0,88,0.00,,,0.00,Wunderground v.1.15,2013-03-11 12:49:00,
2013-03-11 08:54:00,35.1,31.9,30.20,NNW,341,4.0,10.0,88,0.00,,,0.00,Wunderground v.1.15,2013-03-11 12:54:00,
2013-03-11 09:00:00,35.2,32.0,30.21,WSW,246,3.0,3.0,88,0.00,,,0.00,Wunderground v.1.15,2013-03-11 13:00:00,
2013-03-11 09:05:00,35.3,31.8,30.21,SSW,211,4.0,10.0,87,0.00,,,0.00,Wunderground v.1.15,2013-03-11 13:05:00,
2013-03-11 09:11:00,35.3,31.8,30.21,South,169,4.0,10.0,87,0.00,,,0.00,Wunderground v.1.15,2013-03-11 13:11:00,
2013-03-11 09:16:00,35.5,32.0,30.21,SSW,192,4.0,10.0,87,0.00,,,0.00,Wunderground v.1.15,2013-03-11 13:16:00,
2013-03-11 09:21:00,35.7,32.2,30.21,SSW,200,4.0,10.0,87,0.00,,,0.00,Wunderground v.1.15,2013-03-11 13:21:00,
2013-03-11 09:28:00,36.1,32.6,30.21,SW,217,2.0,10.0,87,0.00,,,0.00,Wunderground v.1.15,2013-03-11 13:28:00,
2013-03-11 09:34:00,36.5,32.7,30.21,SW,217,0.0,10.0,86,0.00,,,0.00,Wunderground v.1.15,2013-03-11 13:34:00,
2013-03-11 09:40:00,36.8,32.4,30.21,SSE,168,2.0,10.0,84,0.00,,,0.00,Wunderground v.1.15,2013-03-11 13:40:00,
2013-03-11 09:45:00,37.1,33.0,30.21,South,172,2.0,10.0,85,0.00,,,0.00,Wunderground v.1.15,2013-03-11 13:45:00,
2013-03-11 09:51:00,37.4,33.0,30.22,South,172,0.0,10.0,84,0.00,,,0.00,Wunderground v.1.15,2013-03-11 13:51:00,
2013-03-11 09:57:00,37.8,33.1,30.22,ESE,123,0.0,10.0,83,0.00,,,0.00,Wunderground v.1.15,2013-03-11 13:57:00,
2013-03-11 10:03:00,37.9,33.2,30.22,NE,44,1.0,10.0,83,0.00,,,0.00,Wunderground v.1.15,2013-03-11 14:03:00,
2013-03-11 10:09:00,38.3,33.3,30.21,East,91,0.0,10.0,82,0.00,,,0.00,Wunderground v.1.15,2013-03-11 14:09:00,
2013-03-11 10:15:00,38.8,33.5,30.20,South,172,2.0,10.0,81,0.00,,,0.00,Wunderground v.1.15,2013-03-11 14:15:00,
2013-03-11 10:20:00,39.0,33.4,30.20,East,88,2.0,10.0,80,0.00,,,0.00,Wunderground v.1.15,2013-03-11 14:20:00,
2013-03-11 10:25:00,39.2,33.2,30.20,ESE,116,2.0,10.0,79,0.00,,,0.00,Wunderground v.1.15,2013-03-11 14:25:00,
2013-03-11 10:31:00,39.4,33.4,30.20,North,355,1.0,10.0,79,0.00,,,0.00,Wunderground v.1.15,2013-03-11 14:31:00,
2013-03-11 10:36:00,39.5,33.5,30.20,SSW,212,1.0,10.0,79,0.00,,,0.00,Wunderground v.1.15,2013-03-11 14:36:00,
2013-03-11 10:43:00,40.2,33.9,30.20,SSW,212,0.0,10.0,78,0.00,,,0.00,Wunderground v.1.15,2013-03-11 14:43:00,
2013-03-11 10:48:00,40.4,33.4,30.21,East,86,1.0,10.0,76,0.00,,,0.00,Wunderground v.1.15,2013-03-11 14:48:00,
2013-03-11 10:54:00,40.8,34.5,30.21,East,85,1.0,10.0,78,0.00,,,0.00,Wunderground v.1.15,2013-03-11 14:54:00,
2013-03-11 11:00:00,41.3,34.6,30.21,SE,128,0.0,10.0,77,0.00,,,0.00,Wunderground v.1.15,2013-03-11 15:00:00,
2013-03-11 11:06:00,41.6,34.6,30.21,SW,229,1.0,10.0,76,0.00,,,0.00,Wunderground v.1.15,2013-03-11 15:06:00,
2013-03-11 11:11:00,41.9,34.6,30.21,SW,217,1.0,10.0,75,0.00,,,0.00,Wunderground v.1.15,2013-03-11 15:11:00,
2013-03-11 11:17:00,42.3,34.9,30.21,SW,218,0.0,10.0,75,0.00,,,0.00,Wunderground v.1.15,2013-03-11 15:17:00,
2013-03-11 11:23:00,42.4,35.0,30.20,SSW,206,2.0,10.0,75,0.00,,,0.00,Wunderground v.1.15,2013-03-11 15:23:00,
2013-03-11 11:29:00,42.4,35.0,30.20,SSW,203,1.0,10.0,75,0.00,,,0.00,Wunderground v.1.15,2013-03-11 15:29:00,
2013-03-11 11:35:00,42.5,35.5,30.20,ESE,113,1.0,10.0,76,0.00,,,0.00,Wunderground v.1.15,2013-03-11 15:35:00,
2013-03-11 11:41:00,42.4,35.4,30.20,SSE,153,2.0,10.0,76,0.00,,,0.00,Wunderground v.1.15,2013-03-11 15:41:00,
2013-03-11 11:46:00,42.5,35.5,30.19,ESE,121,3.0,10.0,76,0.00,,,0.00,Wunderground v.1.15,2013-03-11 15:46:00,
2013-03-11 11:52:00,42.6,35.2,30.19,SSW,202,3.0,10.0,75,0.00,,,0.00,Wunderground v.1.15,2013-03-11 15:52:00,
2013-03-11 11:57:00,42.8,35.8,30.18,SE,133,2.0,10.0,76,0.00,,,0.00,Wunderground v.1.15,2013-03-11 15:57:00,
2013-03-11 12:03:00,43.0,35.6,30.19,ESE,114,2.0,10.0,75,0.00,,,0.00,Wunderground v.1.15,2013-03-11 16:03:00,
2013-03-11 12:09:00,43.1,36.0,30.18,ESE,116,2.0,10.0,76,0.00,,,0.00,Wunderground v.1.15,2013-03-11 16:09:00,
2013-03-11 12:14:00,43.1,36.0,30.19,East,97,2.0,10.0,76,0.00,,,0.00,Wunderground v.1.15,2013-03-11 16:14:00,
2013-03-11 12:20:00,43.4,36.3,30.19,ENE,76,2.0,10.0,76,0.00,,,0.00,Wunderground v.1.15,2013-03-11 16:20:00,
2013-03-11 12:27:00,43.5,36.1,30.19,SE,140,2.0,10.0,75,0.00,,,0.00,Wunderground v.1.15,2013-03-11 16:27:00,
2013-03-11 12:32:00,43.6,36.5,30.19,SSE,165,1.0,10.0,76,0.00,,,0.00,Wunderground v.1.15,2013-03-11 16:32:00,
2013-03-11 12:38:00,44.0,36.9,30.19,SSE,147,1.0,10.0,76,0.00,,,0.00,Wunderground v.1.15,2013-03-11 16:38:00,
2013-03-11 12:44:00,44.3,36.9,30.19,SSW,213,2.0,10.0,75,0.00,,,0.00,Wunderground v.1.15,2013-03-11 16:44:00,
2013-03-11 12:50:00,44.1,36.7,30.19,South,184,2.0,2.0,75,0.00,,,0.00,Wunderground v.1.15,2013-03-11 16:50:00,
2013-03-11 12:58:00,44.0,36.6,30.19,South,182,2.0,10.0,75,0.00,,,0.00,Wunderground v.1.15,2013-03-11 16:58:00,
2013-03-11 13:04:00,43.9,36.8,30.18,ESE,111,3.0,10.0,76,0.00,,,0.00,Wunderground v.1.15,2013-03-11 17:04:00,
2013-03-11 13:10:00,43.9,36.8,30.18,SE,136,2.0,2.0,76,0.00,,,0.00,Wunderground v.1.15,2013-03-11 17:10:00,
2013-03-11 13:15:00,44.3,37.5,30.18,SE,136,0.0,10.0,77,0.00,,,0.00,Wunderground v.1.15,2013-03-11 17:15:00,
2013-03-11 13:21:00,44.6,37.2,30.18,SE,142,1.0,10.0,75,0.00,,,0.00,Wunderground v.1.15,2013-03-11 17:21:00,
2013-03-11 13:27:00,44.9,37.8,30.18,North,349,1.0,10.0,76,0.00,,,0.00,Wunderground v.1.15,2013-03-11 17:27:00,
2013-03-11 13:32:00,45.2,37.4,30.18,North,355,0.0,10.0,74,0.00,,,0.00,Wunderground v.1.15,2013-03-11 17:32:00,
2013-03-11 13:37:00,45.5,37.3,30.17,ESE,117,1.0,10.0,73,0.00,,,0.00,Wunderground v.1.15,2013-03-11 17:37:00,
2013-03-11 13:43:00,45.4,37.6,30.17,South,169,1.0,10.0,74,0.00,,,0.00,Wunderground v.1.15,2013-03-11 17:43:00,
2013-03-11 13:48:00,45.2,37.4,30.17,South,188,2.0,10.0,74,0.00,,,0.00,Wunderground v.1.15,2013-03-11 17:48:00,
2013-03-11 13:54:00,45.5,38.0,30.16,South,188,1.0,10.0,75,0.00,,,0.00,Wunderground v.1.15,2013-03-11 17:54:00,
2013-03-11 13:59:00,45.9,37.7,30.17,South,190,0.0,10.0,73,0.00,,,0.00,Wunderground v.1.15,2013-03-11 17:59:00,
2013-03-11 14:05:00,46.1,37.9,30.16,WSW,251,1.0,10.0,73,0.00,,,0.00,Wunderground v.1.15,2013-03-11 18:05:00,
2013-03-11 14:11:00,46.3,37.8,30.16,WSW,251,0.0,10.0,72,0.00,,,0.00,Wunderground v.1.15,2013-03-11 18:11:00,
2013-03-11 14:17:00,46.1,37.6,30.16,WSW,251,0.0,10.0,72,0.00,,,0.00,Wunderground v.1.15,2013-03-11 18:17:00,
2013-03-11 14:22:00,45.9,37.7,30.16,SSW,212,1.0,10.0,73,0.00,,,0.00,Wunderground v.1.15,2013-03-11 18:22:00,
2013-03-11 14:28:00,45.7,37.5,30.16,SW,228,4.0,10.0,73,0.00,,,0.00,Wunderground v.1.15,2013-03-11 18:28:00,
2013-03-11 14:34:00,45.5,38.0,30.16,WSW,250,4.0,10.0,75,0.00,,,0.00,Wunderground v.1.15,2013-03-11 18:34:00,
2013-03-11 14:39:00,45.3,37.8,30.16,SE,132,5.0,10.0,75,0.00,,,0.00,Wunderground v.1.15,2013-03-11 18:39:00,
2013-03-11 14:45:00,45.0,37.9,30.15,SSE,155,6.0,11.0,76,0.00,,,0.00,Wunderground v.1.15,2013-03-11 18:45:00,
2013-03-11 14:51:00,44.9,38.1,30.15,SSW,204,5.0,10.0,77,0.00,,,0.00,Wunderground v.1.15,2013-03-11 18:51:00,
2013-03-11 14:56:00,44.7,37.9,30.15,SW,222,4.0,10.0,77,0.00,,,0.00,Wunderground v.1.15,2013-03-11 18:56:00,
2013-03-11 15:01:00,44.7,37.9,30.15,South,172,4.0,10.0,77,0.00,,,0.00,Wunderground v.1.15,2013-03-11 19:01:00,
2013-03-11 15:07:00,44.8,38.0,30.14,SW,215,2.0,10.0,77,0.00,,,0.00,Wunderground v.1.15,2013-03-11 19:07:00,
2013-03-11 15:12:00,44.9,37.8,30.14,SSE,164,1.0,10.0,76,0.00,,,0.00,Wunderground v.1.15,2013-03-11 19:12:00,
2013-03-11 15:18:00,44.9,38.1,30.14,NNE,32,1.0,10.0,77,0.00,,,0.00,Wunderground v.1.15,2013-03-11 19:18:00,
2013-03-11 15:24:00,45.1,38.3,30.14,NNE,32,1.0,10.0,77,0.00,,,0.00,Wunderground v.1.15,2013-03-11 19:24:00,
2013-03-11 15:29:00,45.2,38.1,30.13,South,188,1.0,10.0,76,0.00,,,0.00,Wunderground v.1.15,2013-03-11 19:29:00,
2013-03-11 15:35:00,45.1,38.0,30.13,SSE,161,3.0,10.0,76,0.00,,,0.00,Wunderground v.1.15,2013-03-11 19:35:00,
2013-03-11 15:40:00,45.1,38.3,30.12,South,186,2.0,2.0,77,0.00,,,0.00,Wunderground v.1.15,2013-03-11 19:40:00,
2013-03-11 15:45:00,45.1,38.0,30.12,SW,224,3.0,10.0,76,0.00,,,0.00,Wunderground v.1.15,2013-03-11 19:45:00,
2013-03-11 15:51:00,45.0,38.2,30.12,SSW,196,6.0,10.0,77,0.00,,,0.00,Wunderground v.1.15,2013-03-11 19:51:00,
2013-03-11 15:57:00,45.1,38.0,30.12,SSW,207,6.0,12.0,76,0.00,,,0.00,Wunderground v.1.15,2013-03-11 19:57:00,
2013-03-11 16:03:00,45.0,37.9,30.12,SSW,200,6.0,10.0,76,0.00,,,0.00,Wunderground v.1.15,2013-03-11 20:03:00,
2013-03-11 16:09:00,45.1,38.0,30.12,SSW,200,4.0,11.0,76,0.00,,,0.00,Wunderground v.1.15,2013-03-11 20:09:00,
2013-03-11 16:15:00,45.1,38.0,30.11,South,171,4.0,10.0,76,0.00,,,0.00,Wunderground v.1.15,2013-03-11 20:15:00,
2013-03-11 16:20:00,45.2,38.1,30.11,SW,233,2.0,10.0,76,0.00,,,0.00,Wunderground v.1.15,2013-03-11 20:20:00,
2013-03-11 16:25:00,45.2,38.1,30.10,SE,142,1.0,10.0,76,0.00,,,0.00,Wunderground v.1.15,2013-03-11 20:25:00,
2013-03-11 16:31:00,45.2,38.1,30.10,SE,130,1.0,2.0,76,0.00,,,0.00,Wunderground v.1.15,2013-03-11 20:31:00,
2013-03-11 16:37:00,45.3,38.2,30.10,SSE,159,1.0,10.0,76,0.00,,,0.00,Wunderground v.1.15,2013-03-11 20:37:00,
2013-03-11 16:42:00,45.2,38.1,30.09,SW,233,3.0,10.0,76,0.00,,,0.00,Wunderground v.1.15,2013-03-11 20:42:00,
2013-03-11 16:47:00,45.2,38.1,30.09,East,86,4.0,10.0,76,0.00,,,0.00,Wunderground v.1.15,2013-03-11 20:47:00,
2013-03-11 16:53:00,45.2,37.7,30.09,SE,125,3.0,10.0,75,0.00,,,0.00,Wunderground v.1.15,2013-03-11 20:53:00,
2013-03-11 16:59:00,45.2,37.7,30.10,SSE,157,3.0,10.0,75,0.00,,,0.00,Wunderground v.1.15,2013-03-11 20:59:00,
2013-03-11 17:04:00,45.3,37.8,30.10,SSW,199,4.0,10.0,75,0.00,,,0.00,Wunderground v.1.15,2013-03-11 21:04:00,
2013-03-11 17:09:00,45.3,37.8,30.09,SE,140,4.0,10.0,75,0.00,,,0.00,Wunderground v.1.15,2013-03-11 21:09:00,
2013-03-11 17:15:00,45.3,37.8,30.09,SSW,208,3.0,10.0,75,0.00,,,0.00,Wunderground v.1.15,2013-03-11 21:15:00,
2013-03-11 17:20:00,45.4,37.6,30.09,South,184,3.0,10.0,74,0.00,,,0.00,Wunderground v.1.15,2013-03-11 21:20:00,
2013-03-11 17:25:00,45.4,37.6,30.08,South,172,3.0,11.0,74,0.00,,,0.00,Wunderground v.1.15,2013-03-11 21:25:00,
2013-03-11 17:31:00,45.4,37.6,30.08,WSW,238,3.0,10.0,74,0.00,,,0.00,Wunderground v.1.15,2013-03-11 21:31:00,
2013-03-11 17:36:00,45.5,37.3,30.08,ESE,110,2.0,10.0,73,0.00,,,0.00,Wunderground v.1.15,2013-03-11 21:36:00,
2013-03-11 17:42:00,45.5,37.0,30.08,South,188,2.0,10.0,72,0.00,,,0.00,Wunderground v.1.15,2013-03-11 21:42:00,
2013-03-11 17:48:00,45.6,37.1,30.08,SSE,156,1.0,10.0,72,0.00,,,0.00,Wunderground v.1.15,2013-03-11 21:48:00,
2013-03-11 17:54:00,45.7,36.8,30.08,East,84,1.0,10.0,71,0.00,,,0.00,Wunderground v.1.15,2013-03-11 21:54:00,
2013-03-11 17:59:00,45.7,36.8,30.08,NE,36,1.0,10.0,71,0.00,,,0.00,Wunderground v.1.15,2013-03-11 21:59:00,
2013-03-11 18:04:00,45.6,36.4,30.08,ENE,70,1.0,10.0,70,0.00,,,0.00,Wunderground v.1.15,2013-03-11 22:04:00,
2013-03-11 18:10:00,45.9,36.3,30.08,SSE,153,2.0,2.0,69,0.00,,,0.00,Wunderground v.1.15,2013-03-11 22:10:00,
2013-03-11 18:15:00,46.0,36.4,30.08,WNW,290,2.0,10.0,69,0.00,,,0.00,Wunderground v.1.15,2013-03-11 22:15:00,
2013-03-11 18:20:00,46.0,36.4,30.08,North,360,1.0,10.0,69,0.00,,,0.00,Wunderground v.1.15,2013-03-11 22:20:00,
2013-03-11 18:25:00,46.1,36.5,30.08,ENE,69,2.0,10.0,69,0.00,,,0.00,Wunderground v.1.15,2013-03-11 22:25:00,
2013-03-11 18:30:00,46.3,36.7,30.07,SE,132,4.0,10.0,69,0.00,,,0.00,Wunderground v.1.15,2013-03-11 22:30:00,
2013-03-11 18:35:00,46.6,36.6,30.07,NW,306,4.0,10.0,68,0.00,,,0.00,Wunderground v.1.15,2013-03-11 22:35:00,
2013-03-11 18:41:00,46.7,36.7,30.07,South,178,2.0,10.0,68,0.00,,,0.00,Wunderground v.1.15,2013-03-11 22:41:00,
2013-03-11 18:46:00,46.7,36.7,30.07,SSW,206,2.0,10.0,68,0.00,,,0.00,Wunderground v.1.15,2013-03-11 22:46:00,
2013-03-11 18:52:00,46.7,36.7,30.07,NE,38,1.0,10.0,68,0.00,,,0.00,Wunderground v.1.15,2013-03-11 22:52:00,
2013-03-11 18:57:00,46.7,36.7,30.07,NE,51,1.0,10.0,68,0.00,,,0.00,Wunderground v.1.15,2013-03-11 22:57:00,
2013-03-11 19:03:00,46.7,36.7,30.06,ESE,121,1.0,10.0,68,0.00,,,0.00,Wunderground v.1.15,2013-03-11 23:03:00,
2013-03-11 19:08:00,46.6,36.6,30.07,South,191,1.0,10.0,68,0.00,,,0.00,Wunderground v.1.15,2013-03-11 23:08:00,
2013-03-11 19:14:00,46.7,37.1,30.06,SSE,153,2.0,10.0,69,0.00,,,0.00,Wunderground v.1.15,2013-03-11 23:14:00,
2013-03-11 19:20:00,46.8,37.2,30.06,ESE,121,4.0,10.0,69,0.00,,,0.00,Wunderground v.1.15,2013-03-11 23:20:00,
2013-03-11 19:27:00,46.9,37.6,30.06,South,180,4.0,10.0,70,0.00,,,0.00,Wunderground v.1.15,2013-03-11 23:27:00,
2013-03-11 19:32:00,46.9,38.0,30.06,SW,214,5.0,10.0,71,0.00,,,0.00,Wunderground v.1.15,2013-03-11 23:32:00,
2013-03-11 19:37:00,46.8,37.9,30.06,SSE,154,5.0,10.0,71,0.00,,,0.00,Wunderground v.1.15,2013-03-11 23:37:00,
2013-03-11 19:42:00,46.8,38.2,30.06,SW,221,4.0,10.0,72,0.00,,,0.00,Wunderground v.1.15,2013-03-11 23:42:00,
2013-03-11 19:48:00,46.7,38.5,30.06,WNW,296,4.0,10.0,73,0.00,,,0.00,Wunderground v.1.15,2013-03-11 23:48:00,
2013-03-11 19:54:00,46.6,38.4,30.07,South,175,3.0,10.0,73,0.00,,,0.00,Wunderground v.1.15,2013-03-11 23:54:00,
2013-03-11 19:59:00,46.4,38.2,30.07,ENE,71,2.0,10.0,73,0.00,,,0.00,Wunderground v.1.15,2013-03-11 23:59:00,
2013-03-11 20:05:00,46.3,38.8,30.07,ESE,105,2.0,10.0,75,0.00,,,0.00,Wunderground v.1.15,2013-03-12 00:05:00,
2013-03-11 20:11:00,46.3,38.8,30.06,SE,142,3.0,10.0,75,0.00,,,0.00,Wunderground v.1.15,2013-03-12 00:11:00,
2013-03-11 20:16:00,46.2,38.7,30.06,NE,50,3.0,10.0,75,0.00,,,0.00,Wunderground v.1.15,2013-03-12 00:16:00,
2013-03-11 20:22:00,46.1,39.0,30.07,West,273,2.0,10.0,76,0.00,,,0.00,Wunderground v.1.15,2013-03-12 00:22:00,
2013-03-11 20:27:00,46.1,39.0,30.07,SW,215,3.0,13.0,76,0.00,,,0.00,Wunderground v.1.15,2013-03-12 00:27:00,
2013-03-11 20:33:00,46.1,39.0,30.06,SSW,195,5.0,10.0,76,0.00,,,0.00,Wunderground v.1.15,2013-03-12 00:33:00,
2013-03-11 20:39:00,46.1,39.3,30.06,WSW,244,6.0,16.0,77,0.00,,,0.00,Wunderground v.1.15,2013-03-12 00:39:00,
2013-03-11 20:44:00,46.2,39.4,30.07,ESE,107,5.0,10.0,77,0.00,,,0.00,Wunderground v.1.15,2013-03-12 00:44:00,
2013-03-11 20:49:00,46.2,39.4,30.07,NE,38,4.0,10.0,77,0.00,,,0.00,Wunderground v.1.15,2013-03-12 00:49:00,
2013-03-11 20:54:00,46.1,39.3,30.07,South,183,4.0,10.0,77,0.00,,,0.00,Wunderground v.1.15,2013-03-12 00:54:00,
2013-03-11 21:00:00,46.1,39.3,30.07,South,190,4.0,13.0,77,0.00,,,0.00,Wunderground v.1.15,2013-03-12 01:00:00,
2013-03-11 21:07:00,46.0,39.5,30.07,WSW,242,5.0,13.0,78,0.00,,,0.00,Wunderground v.1.15,2013-03-12 01:07:00,
2013-03-11 21:13:00,45.9,39.4,30.07,SSE,155,3.0,10.0,78,0.00,,,0.00,Wunderground v.1.15,2013-03-12 01:13:00,
2013-03-11 21:19:00,45.7,39.6,30.07,ESE,118,3.0,10.0,79,0.00,,,0.00,Wunderground v.1.15,2013-03-12 01:19:00,
2013-03-11 21:24:00,45.6,39.5,30.07,SSW,206,5.0,10.0,79,0.00,,,0.00,Wunderground v.1.15,2013-03-12 01:24:00,
2013-03-11 21:30:00,45.5,39.7,30.07,SE,142,5.0,5.0,80,0.00,,,0.00,Wunderground v.1.15,2013-03-12 01:30:00,
2013-03-11 21:36:00,45.4,39.6,30.07,SSE,148,5.0,10.0,80,0.00,,,0.00,Wunderground v.1.15,2013-03-12 01:36:00,
2013-03-11 21:42:00,45.3,39.8,30.07,NE,51,6.0,10.0,81,0.00,,,0.00,Wunderground v.1.15,2013-03-12 01:42:00,
2013-03-11 21:48:00,45.2,39.7,30.07,SSE,165,6.0,10.0,81,0.00,,,0.00,Wunderground v.1.15,2013-03-12 01:48:00,
2013-03-11 21:54:00,45.2,39.7,30.07,SSE,153,6.0,12.0,81,0.00,,,0.00,Wunderground v.1.15,2013-03-12 01:54:00,
2013-03-11 21:59:00,45.2,39.7,30.07,SSE,152,6.0,12.0,81,0.00,,,0.00,Wunderground v.1.15,2013-03-12 01:59:00,
2013-03-11 22:05:00,45.2,39.7,30.07,SSE,148,6.0,10.0,81,0.00,,,0.00,Wunderground v.1.15,2013-03-12 02:05:00,
2013-03-11 22:11:00,45.2,39.7,30.07,SE,126,3.0,10.0,81,0.00,,,0.00,Wunderground v.1.15,2013-03-12 02:11:00,
2013-03-11 22:16:00,45.0,39.8,30.06,ESE,119,2.0,10.0,82,0.00,,,0.00,Wunderground v.1.15,2013-03-12 02:16:00,
2013-03-11 22:22:00,45.0,39.8,30.06,East,101,4.0,10.0,82,0.00,,,0.00,Wunderground v.1.15,2013-03-12 02:22:00,
2013-03-11 22:28:00,45.0,39.8,30.05,East,92,5.0,10.0,82,0.00,,,0.00,Wunderground v.1.15,2013-03-12 02:28:00,
2013-03-11 22:34:00,45.1,39.9,30.05,ENE,76,6.0,10.0,82,0.00,,,0.00,Wunderground v.1.15,2013-03-12 02:34:00,
2013-03-11 22:39:00,45.2,40.0,30.05,East,84,5.0,10.0,82,0.00,,,0.00,Wunderground v.1.15,2013-03-12 02:39:00,
2013-03-11 22:44:00,45.5,40.3,30.04,SSE,163,4.0,11.0,82,0.00,,,0.00,Wunderground v.1.15,2013-03-12 02:44:00,
2013-03-11 22:50:00,45.7,40.2,30.04,ENE,71,4.0,10.0,81,0.00,,,0.00,Wunderground v.1.15,2013-03-12 02:50:00,
2013-03-11 22:56:00,46.0,40.5,30.04,ESE,113,4.0,10.0,81,0.00,,,0.00,Wunderground v.1.15,2013-03-12 02:56:00,
2013-03-11 23:02:00,45.9,40.4,30.04,ENE,70,3.0,10.0,81,0.00,,,0.00,Wunderground v.1.15,2013-03-12 03:02:00,
2013-03-11 23:08:00,45.6,40.1,30.03,East,80,2.0,10.0,81,0.00,,,0.00,Wunderground v.1.15,2013-03-12 03:08:00,
2013-03-11 23:13:00,45.2,40.0,30.02,ESE,108,2.0,10.0,82,0.00,,,0.00,Wunderground v.1.15,2013-03-12 03:13:00,
2013-03-11 23:19:00,45.0,40.1,30.03,East,88,2.0,10.0,83,0.00,,,0.00,Wunderground v.1.15,2013-03-12 03:19:00,
2013-03-11 23:25:00,44.6,39.4,30.04,East,88,0.0,10.0,82,0.00,,,0.00,Wunderground v.1.15,2013-03-12 03:25:00,
2013-03-11 23:30:00,44.2,39.4,30.03,East,88,0.0,10.0,83,0.00,,,0.00,Wunderground v.1.15,2013-03-12 03:30:00,
2013-03-11 23:36:00,44.2,40.0,30.02,East,88,0.0,10.0,85,0.00,,,0.00,Wunderground v.1.15,2013-03-12 03:36:00,
2013-03-11 23:42:00,43.9,39.4,30.02,NE,49,0.0,10.0,84,0.00,,,0.00,Wunderground v.1.15,2013-03-12 03:42:00,
2013-03-11 23:47:00,43.8,39.6,30.03,NE,47,0.0,10.0,85,0.00,,,0.00,Wunderground v.1.15,2013-03-12 03:47:00,
2013-03-11 23:53:00,43.8,40.2,30.02,East,91,1.0,10.0,87,0.00,,,0.00,Wunderground v.1.15,2013-03-12 03:53:00,
2013-03-11 23:59:00,44.2,40.6,30.02,NE,48,2.0,10.0,87,0.00,,,0.00,Wunderground v.1.15,2013-03-12 03:59:00,